Location: *
(30.3167°S, 149.7667°E)
Time: 13:02:07
(UTC+00:00)

Daily predictions for brighter satellites

Satellite Brightness Start Highest point End
(mag) Time Altitude Azimuth Time Altitude Azimuth Time Altitude Azimuth
CZ-4B R/B 3.9 18:11:40 10° NNE 18:16:52 53° E 18:16:52 53° E
Lacrosse 5 3.0 18:24:53 39° ESE 18:24:53 39° ESE 18:28:16 10° SE
Skynet4D Del rocket 4.2 18:25:56 58° NNE 18:25:56 58° NNE 18:31:44 10° ENE
CZ-4C R/B 3.1 18:35:40 33° NNE 18:35:40 33° NNE 18:38:11 10° NNE
Cosmos 2228 4.0 18:38:39 46° E 18:38:39 46° E 18:42:49 10° NNE
Okean O Rocket 3.7 18:36:45 10° NNE 18:37:54 18° N 18:37:54 18° N
SEDSat Delta rocket 3.6 18:42:31 66° ESE 18:42:31 66° ESE 18:46:44 10° E
ATLAS CENTAUR Rocket 2.1 18:45:28 60° NNE 18:45:28 60° NNE 18:49:05 10° E
ATLAS 5 CENTAUR R/B 3.1 18:56:10 42° SSW 18:56:10 42° SSW 19:01:29 10° SSE
USA 234 3.8 18:52:03 10° NNE 18:58:01 38° NW 18:58:04 38° NW
FENGYUN 3A 3.7 18:56:49 10° NNE 19:02:12 77° ESE 19:07:02 13° S
Haruka 3.8 19:00:32 48° W 19:02:26 85° S 19:23:12 10° E
Intelsat 5-1 Rocket 3.4 19:03:33 20° NNE 19:03:33 20° NNE 19:04:55 10° NE
NOSS 3-2 (A) 4.1 19:00:30 28° NW 19:05:08 57° WSW 19:12:51 10° SSE
H-2A ROCKET BODY 3.8 19:01:39 30° NW 19:05:40 69° NNE 19:41:38 10° E
ALOS 2.2 19:03:53 10° NNE 19:08:34 87° WNW 19:10:51 31° SSW
Meteor 2-5 Rocket 4.1 19:03:41 10° N 19:09:09 64° E 19:14:44 10° SSE
Cosmos 1726 Rocket 3.5 19:13:12 61° WSW 19:13:27 62° W 19:17:47 10° N
CENTAUR R/B 3.1 19:06:29 10° NNW 19:14:55 81° ENE 19:22:26 10° SSE
Cosmos 1727 Rocket 3.9 19:08:54 10° SSW 19:15:04 66° W 19:21:11 10° N
ATLAS 3B R/B 2.7 19:09:15 10° NNW 19:16:21 82° WSW 19:23:45 10° SSE
IRS-1C Rocket 4.0 19:12:05 10° NNE 19:17:21 87° WNW 19:22:42 10° SSW
Centaur D AC-28 4.4 19:02:09 28° W 19:17:23 55° NW 19:23:54 10° NE
Tiangong 2 3.4 19:21:43 16° SSE 19:21:43 16° SSE 19:22:49 10° SSE
Cosmos 158 Rocket 4.2 19:14:58 10° N 19:20:16 74° ENE 19:25:43 10° SSE
Okean-O 3.8 19:16:24 10° NE 19:20:34 42° ESE 19:24:49 10° S
BREEZE-M DEB (TANK) 4.0 19:22:13 33° W 19:24:17 48° NW 19:39:34 10° NNE
Cosmos 1680 Rocket 4.0 19:25:29 36° WSW 19:25:29 36° WSW 19:30:11 10° S
Cosmos 1953 3.5 19:27:16 27° NW 19:27:16 27° NW 19:29:39 10° NNW
Cosmos 967 Rocket 4.5 19:21:46 16° SSW 19:27:00 85° ESE 19:33:16 10° NNE
Meteor 1-16 Rocket 4.0 19:22:00 10° S 19:27:32 80° W 19:32:51 10° N
Cosmos 1674 2.7 19:23:50 10° N 19:27:41 84° E 19:31:36 10° S
CZ-3 R/B 4.0 19:15:58 24° W 19:28:30 38° NW 19:36:36 10° NNE
Cosmos 1184 Rocket 3.2 19:29:40 45° WNW 19:29:40 45° WNW 19:32:28 10° N
Lacrosse 5 rocket 3.3 19:33:12 13° S 19:33:12 13° S 19:33:50 10° S
Longmarch 3A Rocket 4.3 19:01:36 10° WNW 19:37:05 69° N 19:42:04 10° E
Meteor 1-24 Rocket 3.6 19:33:59 10° N 19:39:17 85° E 19:44:44 10° S
TRAILBLAZER 4.4 19:37:21 10° NNW 19:41:47 74° WSW 19:46:13 10° SSE
COSMO-SKYMED 1 3.6 19:40:05 10° SSE 19:44:21 48° E 19:48:33 10° N
Cosmos 1821 Rocket 4.2 19:39:46 10° NNW 19:45:56 50° W 19:52:07 10° S
Meteor 1-4 Rocket 2.9 19:43:36 10° N 19:47:21 71° E 19:51:11 10° SSE
Cosmos 389 Rocket 2.4 19:47:49 10° N 19:51:27 83° W 19:55:05 10° S
Cosmos 1626 3.9 19:51:11 10° NNE 19:54:35 35° E 19:58:03 10° SSE
Cosmos 1908 3.2 19:50:46 10° S 19:54:45 90° WSW 19:58:41 10° N
Cosmos 1602 Rocket 3.7 19:50:24 10° NNW 19:54:48 54° W 19:59:15 10° S
SL-14 R/B 4.1 19:52:08 10° N 19:56:03 57° E 20:00:05 10° SSE
Cosmos 1624 Rocket 4.3 19:53:02 10° SSW 19:58:24 75° ESE 20:03:44 10° NNE
Cosmos 1626 Rocket 4.2 19:57:57 10° NW 20:02:01 34° W 20:06:08 10° SSW
Cosmos 1825 Rocket 4.3 19:58:03 10° N 20:02:27 58° E 20:06:52 10° SSE
Cosmos 1697 Rocket 4.4 19:59:18 10° N 20:04:29 38° ENE 20:09:41 10° SE
Delta 2 Rocket 4.0 20:01:08 16° W 20:04:35 47° NNW 20:08:33 10° NE
Lacrosse 5 3.3 20:04:11 15° WSW 20:06:29 19° SW 20:10:10 10° S
CZ-4 R/B 2.5 20:02:50 10° NNE 20:06:31 44° ESE 20:10:16 10° S
YAOGAN 1 4.3 20:02:49 10° NE 20:06:45 34° ESE 20:10:44 10° S
Cosmos 1371 Rocket 4.0 20:03:10 10° SSW 20:08:29 73° WNW 20:13:41 10° N
NOSS 3-3 (A) 3.9 20:04:15 10° SSW 20:10:30 87° ESE 20:16:15 10° NNE
NOSS 3-3 (C) 3.9 20:04:20 10° SSW 20:10:36 86° ESE 20:16:21 10° NNE
H-2A R/B 2.8 20:10:27 10° N 20:14:04 54° W 20:17:45 10° SSW
Cosmos 1300 4.2 20:10:40 10° S 20:14:21 40° E 20:17:59 10° NNE
Shenzhou-11 Module 3.8 20:12:54 11° W 20:14:35 17° NW 20:16:30 10° N
YAOGAN 6 4.2 20:19:17 10° NE 20:22:35 36° ESE 20:25:59 10° S
CRYOSAT 2 4.4 20:18:33 10° S 20:23:22 58° W 20:28:10 10° NNW
NOAA 12 4.1 20:20:19 10° N 20:25:31 67° WNW 20:30:47 10° SSW
SEDSat Delta rocket 3.4 20:23:03 10° W 20:28:05 62° NNW 20:32:29 10° ENE
Cosmos 2123 Rocket 4.2 20:22:35 10° SSW 20:28:45 55° W 20:34:49 10° NNW
Cosmos 1726 3.5 20:26:24 10° SW 20:29:07 19° W 20:31:48 10° NW
